GFSFLT1_850_thetae_003.txt.gz
Theta_e
321 324 322 322 318 310 308 308 311 313 311 311 311 309 310 318 323 324 326 323 308 309 308 308 308 306 305 304 304 304 302 303 303
321 320 323 319 316 312 307 306 308 308 310 310 310 309 312 321 323 324 325 313 310 309 308 308 308 306 305 304 304 303 302 301 301
323 324 325 323 320 314 310 306 307 309 310 310 310 309 311 320 321 322 324 308 309 308 307 308 307 307 306 306 305 305 304 304 303
322 325 325 324 321 315 310 309 307 309 310 310 309 309 310 318 319 319 319 308 308 308 308 308 308 307 307 307 307 307 307 306 306
321 322 324 325 321 315 309 308 308 309 310 309 309 309 309 316 313 319 319 309 309 308 308 308 308 308 308 308 308 308 308 308 308
323 323 322 319 316 313 307 306 308 310 309 309 308 308 310 317 319 320 310 309 309 309 309 308 308 308 308 309 309 309 308 309 309
325 324 315 313 312 310 307 307 309 310 311 312 309 308 313 313 317 319 310 309 309 309 309 309 308 308 308 309 309 309 309 309 309
321 322 318 312 312 309 307 308 309 311 315 313 316 312 314 311 312 316 310 309 309 309 309 309 309 309 309 309 309 309 309 309 309
323 323 323 320 321 315 318 317 316 311 310 311 311 312 312 311 308 312 310 309 309 309 309 308 308 308 308 308 308 309 309 309 309
322 322 322 320 320 320 319 315 318 319 315 312 311 309 309 310 309 308 309 309 309 308 308 308 308 308 308 308 308 308 308 308 308
321 321 321 321 321 320 320 319 319 320 320 315 313 311 309 308 309 309 309 309 309 308 308 308 308 308 308 308 309 309 310 310 308
322 321 321 321 322 322 322 321 320 320 320 318 314 313 312 311 310 309 309 309 310 309 309 309 308 308 308 307 308 311 317 315 312
325 324 322 321 323 323 322 322 322 321 320 319 319 316 314 313 312 311 310 309 309 309 309 309 309 308 309 308 309 312 315 310 308
328 328 326 324 323 323 323 322 322 322 321 320 319 319 319 318 316 314 312 311 310 310 310 309 309 309 309 309 309 310 310 308 309
329 329 329 328 326 324 324 323 322 322 322 321 320 319 319 318 318 318 317 315 311 311 310 310 309 308 309 309 309 309 309 309 309
327 328 330 330 329 327 325 325 324 324 323 322 322 322 321 320 319 318 317 315 312 312 311 310 309 310 310 310 309 309 311 316 317
327 327 328 330 330 329 328 326 326 325 324 323 322 321 320 320 320 321 320 318 318 315 314 311 311 313 313 315 318 318 318 317 317
326 326 328 329 331 330 330 328 327 326 325 324 323 321 320 319 319 320 319 314 313 312 312 314 319 319 320 320 319 318 318 319 319
323 324 326 328 329 330 330 330 329 328 327 326 325 323 321 321 320 319 319 318 317 317 317 317 318 318 319 318 318 318 318 318 318
324 324 326 326 327 328 328 330 330 330 328 327 326 325 324 322 322 321 320 320 319 318 318 317 318 319 318 317 318 317 318 318 317

GFSFLT1_850_thetae_006.txt.gz
Theta_e
323 319 319 314 313 311 309 311 312 322 315 315 310 310 317 322 324 326 326 320 309 309 308 308 307 307 305 305 305 303 302 302 302
324 320 320 318 315 313 308 307 308 309 310 312 310 310 319 322 324 325 324 309 309 308 308 308 308 307 306 305 306 305 303 303 302
323 324 324 323 319 315 310 306 307 308 310 310 310 309 319 321 323 323 322 309 309 308 308 309 308 308 308 307 307 307 306 306 305
323 324 324 324 323 316 311 308 307 308 309 310 309 309 315 318 319 318 314 309 309 308 308 309 309 309 308 309 308 308 308 308 307
322 321 324 324 323 317 312 308 308 308 309 309 309 309 311 313 313 318 318 313 309 308 308 309 309 309 309 309 309 309 308 308 308
325 319 316 318 318 314 311 307 307 309 309 309 309 309 309 313 313 317 314 310 309 309 309 309 309 309 309 309 309 309 309 309 309
326 323 320 316 312 311 309 307 307 308 310 309 309 308 309 311 316 316 315 310 309 309 309 310 309 309 309 309 309 309 309 309 309
324 321 316 317 311 311 309 307 307 309 310 311 312 309 308 312 311 314 313 311 309 309 309 309 309 309 309 309 309 309 309 309 309
319 317 317 318 314 315 311 312 308 310 311 312 312 313 312 313 312 310 310 311 309 309 309 309 309 309 309 308 308 308 308 309 309
320 319 321 320 317 316 318 316 314 316 312 311 311 310 311 310 310 310 309 309 310 309 309 309 309 309 308 308 308 308 308 308 308
321 320 319 319 319 317 317 316 314 312 315 314 313 311 310 309 309 309 309 309 309 309 309 309 309 309 309 308 308 308 309 309 309
322 322 321 320 319 318 317 316 318 318 317 316 317 315 313 311 310 309 309 309 309 310 310 310 309 309 309 309 309 308 309 309 310
326 325 325 324 322 320 320 319 318 317 316 317 318 319 316 313 312 311 310 310 310 309 310 310 310 309 309 309 309 309 309 310 310
323 325 325 326 325 323 322 321 321 320 320 320 319 317 317 318 317 315 313 312 311 310 310 310 310 310 310 309 309 309 309 310 310
323 324 325 327 328 327 325 324 323 322 321 321 321 320 320 318 318 318 318 318 317 315 314 312 311 311 310 310 309 308 309 309 310
324 325 326 327 328 328 328 326 325 325 324 322 322 322 321 321 321 320 319 317 317 316 316 314 313 312 311 310 309 310 310 309 309
327 327 326 327 328 328 329 328 327 326 325 324 324 323 322 322 321 320 319 317 318 319 320 319 316 314 313 311 311 313 315 316 316
330 330 330 329 329 328 329 329 328 327 326 326 324 323 322 321 320 319 318 318 320 320 318 317 316 314 312 317 318 318 319 318 318
328 329 329 330 330 329 329 330 330 329 328 326 325 324 323 322 322 321 321 319 319 318 316 315 315 315 316 318 318 320 319 318 318
329 329 329 329 329 329 330 330 331 330 329 327 326 325 325 325 323 322 322 321 321 320 319 319 318 318 317 318 318 318 318 317 317

GFSFLT1_850_thetae_012.txt.gz
Theta_e
321 316 314 312 311 310 310 313 311 313 315 322 311 311 316 320 324 323 324 322 309 309 308 308 308 307 307 306 306 305 304 303 303
318 317 316 314 313 310 308 308 309 309 309 310 309 311 316 317 321 321 323 319 310 309 309 309 308 308 307 307 307 307 306 305 305
315 316 316 317 317 313 310 308 307 308 308 309 309 311 316 317 319 321 320 318 310 309 309 309 309 308 308 308 308 308 308 307 307
312 316 320 323 321 318 314 310 308 307 308 309 309 310 315 317 317 317 317 317 311 309 309 309 309 309 309 309 308 308 308 308 308
313 318 318 317 320 320 319 313 310 308 307 308 309 309 313 316 317 316 316 313 310 309 309 309 309 309 309 309 309 309 309 309 309
312 316 319 316 314 315 314 313 311 308 308 308 309 309 309 314 315 314 313 314 315 312 309 309 309 309 309 309 309 309 309 309 310
314 317 317 315 314 313 313 311 309 308 307 308 309 309 309 309 312 313 312 313 314 314 310 310 310 310 310 309 309 309 309 309 309
315 316 315 315 314 314 313 311 310 309 307 307 309 309 309 309 309 311 311 312 313 315 312 310 310 310 310 310 310 309 309 309 309
317 317 317 317 316 315 315 312 312 310 307 307 308 309 309 309 308 309 311 312 312 314 313 311 310 310 310 310 310 309 309 309 309
319 319 319 319 319 318 317 316 314 312 311 308 308 309 310 310 310 309 309 311 311 311 312 314 312 310 310 310 309 309 309 309 309
321 321 321 321 321 320 320 319 318 316 315 313 311 311 312 312 311 311 311 310 311 312 311 311 314 315 315 314 311 310 309 309 309
323 323 322 323 322 322 322 321 320 320 318 317 316 314 312 312 313 313 311 310 310 310 310 310 310 311 314 318 319 318 316 311 310
324 324 324 324 324 324 323 323 322 322 321 321 320 318 317 316 315 314 315 315 314 313 311 310 309 309 309 313 318 320 320 320 317
326 326 325 325 325 325 325 324 324 323 323 323 322 322 321 320 319 318 317 317 316 315 314 313 312 311 310 310 315 317 318 318 318
330 330 330 330 329 328 327 326 326 325 325 323 323 323 323 323 323 322 321 321 320 319 318 316 315 315 315 315 313 312 312 313 314
332 332 331 331 331 331 330 329 328 328 327 325 325 324 325 325 325 325 324 324 324 323 322 320 319 319 318 318 317 316 316 316 316
331 332 332 332 332 331 331 331 330 330 329 327 325 323 324 324 325 325 324 320 320 320 320 321 320 320 320 319 319 318 317 318 319
331 331 331 331 331 331 331 330 330 330 329 327 325 324 324 324 325 325 323 323 321 321 320 320 320 319 319 318 318 317 318 317 317
327 327 327 327 327 328 329 330 330 330 329 327 327 326 325 325 324 324 325 324 324 323 322 321 321 321 321 319 320 320 318 317 314
325 325 326 327 327 328 328 328 330 330 330 328 328 328 327 326 324 324 324 324 324 324 324 323 322 321 321 321 320 321 321 320 320

GFSFLT1_850_thetae_015.txt.gz
Theta_e
323 319 316 314 312 310 311 314 313 314 322 320 314 312 318 320 320 320 320 319 312 309 309 309 308 307 307 307 306 305 305 304 303
321 319 318 316 314 312 309 308 311 310 310 311 312 311 314 316 318 319 318 317 314 309 309 309 309 308 308 308 307 307 306 306 305
324 319 318 318 316 315 312 309 308 308 308 308 309 309 312 316 317 319 320 318 315 309 309 309 309 309 308 308 308 308 308 308 308
319 316 318 320 318 317 314 313 310 308 307 308 309 309 312 315 317 320 320 317 316 311 309 309 309 309 309 309 309 309 309 308 308
312 313 315 314 313 315 316 315 313 311 309 307 308 309 310 313 316 317 317 317 315 315 310 309 309 309 309 309 309 309 309 309 309
311 311 315 315 313 313 315 314 313 312 310 308 307 309 309 310 313 315 316 316 314 313 315 310 309 309 309 309 309 309 309 309 309
312 313 315 314 314 315 315 315 315 312 310 308 308 308 309 309 310 314 314 314 313 314 319 315 310 309 309 309 309 309 309 309 309
314 315 316 316 316 315 315 315 314 311 310 309 307 307 308 309 309 309 310 312 312 312 317 323 315 309 309 309 309 309 309 309 309
317 317 318 318 318 318 317 317 317 315 313 310 307 307 308 309 309 309 308 310 312 312 313 323 323 316 310 309 309 309 309 309 309
320 320 320 320 320 320 320 320 319 319 317 315 313 310 307 308 309 310 309 308 309 311 312 322 324 324 323 319 313 310 309 309 309
322 322 322 322 322 322 322 322 321 321 320 320 318 316 314 312 310 310 311 311 311 309 310 312 321 323 324 324 323 322 319 312 310
322 322 323 323 324 324 324 324 323 323 322 322 321 321 319 318 316 314 312 312 312 311 311 312 312 313 317 322 323 323 323 322 322
324 324 325 325 326 325 325 325 325 325 324 324 324 323 322 322 322 320 319 318 316 315 315 315 313 311 311 317 318 320 321 322 321
328 329 329 330 331 331 330 329 328 328 327 326 326 326 325 325 324 324 323 322 321 321 320 318 317 317 316 314 315 315 316 317 319
330 331 332 332 332 331 331 331 331 331 330 328 328 328 327 327 327 326 325 325 325 324 324 323 322 321 319 318 317 316 314 314 314
331 332 332 332 332 332 332 332 332 331 331 329 328 327 327 326 325 325 325 325 324 325 324 323 323 323 323 322 321 319 318 317 317
332 332 331 331 330 330 331 331 331 331 331 330 327 324 325 325 325 325 324 324 325 324 322 322 320 319 319 319 319 320 320 320 320
327 327 326 326 326 327 327 327 328 329 329 329 328 326 326 326 325 325 325 324 324 324 325 325 324 324 323 321 320 320 320 319 318
322 322 322 322 322 323 325 325 326 326 327 327 328 328 328 326 326 326 325 324 324 324 324 324 324 325 325 325 325 324 320 320 320
314 313 313 313 313 314 315 317 319 322 324 324 325 326 327 327 325 324 324 325 325 324 324 325 325 325 324 324 324 324 324 322 319

GFSFLT1_850_thetae_018.txt.gz
Theta_e
327 322 318 317 315 313 312 319 313 316 319 321 327 318 312 314 317 319 321 320 319 311 309 309 309 308 308 308 307 306 305 305 304
326 320 318 316 314 313 311 310 312 312 314 316 319 318 312 314 316 317 319 321 318 319 309 309 309 309 308 308 308 307 307 306 306
327 317 315 315 316 316 316 313 311 308 308 308 309 312 312 311 314 316 316 319 319 323 312 309 309 309 309 309 308 308 308 307 307
318 316 314 316 320 326 324 322 318 313 310 307 308 309 310 310 313 315 316 318 320 321 323 310 309 309 309 309 309 309 308 308 308
311 312 312 315 318 325 325 323 318 316 314 311 308 308 309 309 311 314 315 316 319 318 323 319 310 309 309 309 309 309 309 309 309
312 312 312 314 317 317 317 317 317 316 313 311 310 308 308 309 309 311 314 315 316 317 320 323 320 310 309 309 309 309 309 309 309
313 313 313 314 317 317 317 318 317 317 314 311 310 308 307 308 309 309 311 314 316 316 315 318 323 320 311 309 309 309 309 309 309
314 316 316 317 318 318 319 318 318 317 316 313 312 310 307 307 308 309 309 309 313 313 313 315 323 324 322 314 311 311 310 309 309
317 318 318 318 319 320 320 320 320 319 319 319 317 315 312 308 307 308 309 309 309 309 310 312 318 324 326 324 320 314 311 311 310
321 321 321 322 322 322 322 322 322 322 322 321 321 320 319 317 314 311 308 309 309 309 308 309 312 320 322 325 323 321 317 313 313
320 321 322 322 323 323 324 324 324 324 324 324 323 323 323 322 321 320 318 315 311 310 311 311 310 312 321 323 324 324 323 321 321
323 324 325 326 327 328 328 328 327 327 327 327 326 325 325 325 324 324 323 323 321 318 314 313 313 312 315 319 321 322 323 323 323
327 328 329 330 331 331 331 330 330 330 330 330 330 329 328 328 327 326 326 325 324 324 323 321 318 316 315 317 319 319 319 320 321
328 329 330 330 331 331 331 331 330 329 328 329 329 329 329 328 327 327 327 326 326 326 326 325 324 323 322 320 318 318 318 317 317
330 330 331 331 331 330 330 329 329 329 329 329 329 328 328 327 327 326 325 325 325 325 325 325 324 324 325 325 324 321 319 319 318
330 330 331 331 330 330 329 328 328 327 327 327 327 328 328 327 326 325 325 325 324 324 324 324 324 324 322 320 319 322 323 322 322
328 327 326 325 325 324 324 325 325 326 327 326 325 324 325 325 326 326 326 326 325 325 324 324 324 324 324 324 322 320 319 319 320
319 319 319 318 317 317 316 317 318 318 321 323 324 324 324 324 324 325 324 326 325 325 324 325 324 324 324 324 324 324 325 324 321
313 313 312 311 310 309 309 309 309 311 312 315 319 322 321 322 322 323 323 325 324 323 324 323 325 325 324 324 324 324 324 324 324
308 308 307 307 307 306 306 305 305 305 305 306 309 312 314 316 319 319 319 319 320 321 322 323 323 325 324 324 323 324 323 325 324

GFSFLT1_850_thetae_021.txt.gz
Theta_e
317 315 316 314 314 313 312 323 317 319 321 327 325 326 322 313 315 316 319 319 319 318 323 311 310 309 308 308 307 307 306 306 305
322 314 314 315 315 315 313 312 315 318 316 322 323 325 324 318 313 316 317 319 320 317 323 311 309 309 308 308 308 308 307 307 306
328 320 314 315 316 319 320 319 314 312 311 313 317 317 324 320 312 314 315 316 319 320 326 321 310 309 309 309 308 308 308 308 307
318 320 316 316 318 326 326 326 325 322 317 313 311 312 311 317 313 311 314 315 317 320 320 324 322 315 309 309 309 309 309 308 308
315 315 316 315 316 318 322 325 325 322 322 315 313 312 309 309 309 310 312 314 317 318 319 322 325 322 315 310 309 309 309 309 309
315 314 314 313 314 318 318 321 324 325 324 316 314 312 310 308 308 309 309 311 314 316 316 318 323 325 323 314 311 310 309 309 309
314 314 314 314 316 317 318 318 318 318 318 317 316 313 311 309 307 307 308 309 310 312 314 316 322 324 323 323 315 312 311 310 309
316 316 317 317 318 318 319 320 320 320 320 320 319 319 317 314 311 308 307 308 309 309 310 313 314 318 322 324 323 320 317 315 312
319 320 320 321 321 322 322 323 323 322 322 322 322 322 322 321 321 319 316 310 308 309 309 309 309 310 318 323 324 323 322 315 314
320 321 321 322 322 323 324 324 324 324 324 324 324 324 324 324 323 323 322 321 318 314 309 309 309 309 313 319 321 322 323 324 321
322 323 324 325 326 327 328 328 328 329 329 329 329 329 329 328 327 326 325 324 323 322 320 317 312 310 313 318 320 320 319 323 324
326 327 328 328 328 329 329 329 329 329 329 329 329 328 328 328 329 329 329 328 327 326 325 324 322 320 317 316 318 316 315 318 321
328 328 328 329 329 330 330 330 329 329 328 328 328 328 328 328 328 328 328 327 327 326 326 326 326 325 324 322 321 319 317 316 316
328 329 329 329 330 330 331 329 329 329 328 328 328 327 327 327 327 327 327 327 326 326 325 324 325 325 325 326 325 323 322 320 319
328 329 329 330 330 329 327 326 325 325 325 326 326 326 326 325 325 325 325 325 325 325 325 325 324 324 324 324 324 324 324 324 323
328 326 324 323 322 321 320 320 320 319 319 320 320 321 321 321 321 323 324 324 324 323 325 325 325 325 324 324 324 324 322 322 322
318 316 315 314 313 312 311 310 309 309 310 317 317 320 319 321 322 320 322 322 323 324 323 324 324 325 324 325 324 324 324 324 323
311 310 309 308 307 307 306 306 305 304 305 305 311 317 317 317 317 319 319 320 321 321 322 323 324 323 323 323 323 324 324 324 324
307 307 307 307 307 306 306 305 304 303 303 304 304 304 305 310 310 311 314 314 317 318 318 318 318 317 316 317 319 320 322 323 324
309 308 307 306 305 303 302 301 301 300 300 301 302 303 305 307 309 309 309 308 310 311 312 313 316 317 316 315 315 317 320 321 322

GFSFLT1_850_thetae_027.txt.gz
Theta_e
324 323 323 318 318 316 314 312 316 323 319 322 321 323 325 324 325 324 323 321 321 326 317 325 319 319 314 311 310 309 308 307 307
326 326 319 319 317 317 316 316 315 313 312 314 315 322 324 321 323 325 323 322 324 325 318 319 322 314 310 309 309 309 308 308 307
325 327 320 318 316 316 323 324 325 323 321 319 314 312 313 315 320 325 325 323 319 316 317 325 324 327 319 310 310 309 309 309 308
319 321 318 315 313 314 315 319 325 325 323 318 314 313 312 312 311 320 324 324 320 312 313 316 324 325 327 323 315 311 310 309 309
316 315 317 315 314 314 315 316 317 318 319 318 316 315 314 312 316 320 322 322 315 310 311 313 315 326 324 328 325 317 311 310 310
328 327 316 315 316 316 317 318 319 319 319 321 325 323 320 322 322 321 320 319 312 308 308 310 311 313 321 321 326 326 324 317 313
325 318 317 317 318 319 320 321 321 322 323 328 327 327 327 326 325 323 321 319 317 313 308 307 309 310 311 316 322 322 326 325 323
327 327 325 322 323 322 323 324 326 327 327 327 327 327 327 327 327 326 325 322 322 322 321 318 311 308 308 309 311 316 322 324 325
327 327 327 325 326 327 327 328 328 328 328 328 328 328 328 328 328 327 327 326 326 326 325 324 322 321 316 310 309 309 310 313 320
328 328 328 328 328 328 329 329 329 330 330 330 330 329 329 329 329 329 328 328 328 327 327 328 328 325 323 322 320 315 310 310 310
330 329 330 330 330 329 329 329 329 329 330 330 329 329 329 329 329 328 328 328 328 328 327 327 328 328 328 327 326 324 323 320 314
329 329 330 330 330 329 329 330 330 330 330 329 329 328 328 327 327 327 327 327 327 327 327 327 326 326 327 328 329 328 327 326 324
329 329 329 330 330 330 329 328 327 326 325 325 324 324 324 324 325 325 325 325 325 326 326 326 326 325 325 326 327 327 328 329 328
328 329 327 324 324 323 321 318 318 317 315 317 317 318 318 319 319 321 321 323 324 324 325 324 323 324 323 323 323 323 324 325 326
322 319 315 312 311 311 309 309 309 309 311 311 311 311 312 311 315 319 320 322 324 323 321 320 321 322 324 323 323 323 323 323 324
310 309 308 309 310 309 309 308 307 307 308 308 309 307 311 312 313 314 318 319 317 312 315 315 318 319 318 318 321 322 322 322 322
310 310 310 310 309 308 306 304 303 304 304 305 304 307 307 310 309 305 306 308 309 312 314 315 314 313 314 316 315 316 317 316 319
312 311 309 307 305 303 301 299 299 300 299 301 302 304 304 303 303 304 305 307 306 305 308 310 305 306 309 311 312 313 315 317 317
309 308 306 304 302 298 296 296 297 299 298 296 298 299 301 303 304 301 300 301 302 300 301 302 301 303 307 308 308 309 310 311 312
308 306 303 301 298 295 295 294 295 296 295 295 296 298 301 300 298 298 297 298 298 298 301 301 303 303 299 303 305 305 306 305 307